Regional Weather Roundup
Issued by NWS

Home | Current Version | Previous Version | Graphics & Text | Print | Product List | Glossary On
Versions: 1 2 3 4 5 6 7 8 9 10 11 12 13 14 15 16 17 18 19 20 21 22 23 24 25 26 27 28 29 30 31 32 33 34 35 36 37 38 39 40 41 42 43 44 45 46 47 48 49 50
000
ASUS43 KFSD 240710
RWRSD

WEATHER ROUNDUP FOR SOUTH DAKOTA
NATIONAL WEATHER SERVICE SIOUX FALLS SD
200 AM CDT WED MAY 24 2017

NOTE: "FAIR" INDICATES FEW OR NO CLOUDS BELOW 12,000 FEET WITH NO
SIGNIFICANT WEATHER AND/OR OBSTRUCTIONS TO VISIBILITY.


SDZ001>005-009-010-012>017-240800-
NORTHWEST AND NORTH CENTRAL SOUTH DAKOTA

CITY           SKY/WX    TMP DP  RH WIND       PRES   REMARKS
BUFFALO          N/A     45  37  73 SE10      29.83F
FAITH            N/A     40  36  86 SE10      29.92F
MOBRIDGE       CLEAR     38  34  85 CALM      29.90F
$$

SDZ012>016-024>037-041>051-057-063-072>074-240800-
SOUTHWEST AND SOUTH CENTRAL SOUTH DAKOTA

CITY           SKY/WX    TMP DP  RH WIND       PRES   REMARKS
RAPID CTY ARPT CLOUDY    40  34  79 SE3       29.93F
PIERRE         PTCLDY    39  36  89 W3        29.91F
CUSTER         CLOUDY    37  28  70 S3        29.96F
ELLSWORTH AFB  CLOUDY    45  36  70 S6        29.92F
PHILIP         CLOUDY    33  32  96 W7        29.94F WCI  27
PINE RIDGE     CLEAR     42  37  82 CALM      29.95F
SPEARFISH      FAIR      41  36  81 S5        29.90F
WINNER         FAIR      40  37  89 W7        29.92F
$$

SDZ004>011-016>023-039-040-240800-
NORTHEAST SOUTH DAKOTA

CITY           SKY/WX    TMP DP  RH WIND       PRES   REMARKS
ABERDEEN       CLEAR     40  36  86 NW7       29.90F
WATERTOWN      CLEAR     39  38  96 NE5       29.86F
BROOKINGS      CLEAR     43  42  97 N6        29.86F
SISSETON         N/A     42  41  96 NW6       29.86F
$$

SDZ017-020-022-023-036>040-048>070-240800-
SOUTHEAST SOUTH DAKOTA

CITY           SKY/WX    TMP DP  RH WIND       PRES   REMARKS
SIOUX FALLS    CLEAR     47  45  93 N8        29.84F
HURON          CLEAR     37  37 100 NW6       29.89F
CHAMBERLAIN    CLEAR     44  42  91 NW7       29.91F
MITCHELL       CLEAR     44  42  93 W7        29.89F
YANKTON        CLEAR     45  43  93 NW10      29.86F
$$

ABBREVIATIONS USED IN REMARKS
   TC - TEMPERATURE IN CELSIUS
  WCI - WIND CHILL INDEX
   HX - HEAT INDEX
  VSB - VISIBILITY





USA.gov is the U.S. government's official web portal to all federal, state and local government web resources and services.